www.pogodaiklimat.ru

Погода и климат >> Архив погоды >> Великобритания >> Lossiemouth


ПОГОДА в Lossiemouth

  • Прогноз погоды в Lossiemouth
  • Монитор погоды в Lossiemouth
  • Климат города

АРХИВ ПОГОДЫ в Lossiemouth

Время (UTC), дата Ветер
(напр.,м/с)
 
Видим.   Явления Облачность Т
(С)
Тd
(С)
f
(%)
Тe
(С)
Тes
(С)
Комфортность P
(гПа)
Po
(гПа)
Тmin
(С)
Tmax
(С)
R
(мм)
R24
(мм)
S
(см)
10 11.12 СЗ 5 15 км слабый ливневой дождь 8/8 400 м
[Cu Sc]
+3.9 +1.9 87 -1 -1 989.6 988.7
11 11.12 С 7 5000 м в посл. час ливневой дождь 5/5 420 м
[Sc diur, vesp]
+4.3 +1.5 82 -2 -2 990.5 989.7
12 11.12 С 5 20 км в посл. час ливневой снег 5/5 360 м
[Cb cap]
+4.6 +1.3 79 -0 -0 991.2 990.3 1
13 11.12 С 7 25 км в посл. час ливневой дождь 5/5 360 м
[Cb cap Ac trans]
+4.8 +0.8 75 -1 -1 991.8 991.0
14 11.12 С 7 24 км осадки на расстоянии 4/4 360 м
[Cb cap]
+5.1 +1.7 79 -0 -0 992.5 991.7
15 11.12 С 7 25 км {ливн. осадки} 3/3 420 м
[Cb cap Ac trans]
+5.3 +2.1 80 -0 -0 993.4 992.5
16 11.12 С 7 25 км 5/4 600 м
[Cb cap Ac trans]
+5.5 +1.7 76 0 0 994.5 993.7
17 11.12 С 7 30 км 3/3 450 м
[Cb cap Ac trans]
+5.2 +1.8 79 0 0 995.5 994.7
18 11.12 С 6 45 км {ливн. осадки} 1/1 420 м
[Cb cap Ac trans]
+4.7 +1.7 81 -0 -0 996.2 995.3 +5.7 1
19 11.12 СЗ 5 40 км 1/0
[Ac trans]
+5.1 +1.5 78 +1 +1 997.3 996.4
20 11.12 СЗ 6 30 км 5/5 540 м
[Cu Sc]
+4.2 +1.6 83 -1 -1 998.4 997.5
21 11.12 З 5 35 км 8/8 450 м
[Cu Sc]
+3.6 +1.7 87 -2 -2 999.0 998.1
22 11.12 ЮЗ 5 30 км 6/6 360 м
[Sc]
+1.0 +0.1 94 -5 -5 998.9 998.1
23 11.12 З 6 30 км 4/4 1200 м
[Sc]
+0.8 -0.1 94 -6 -6 998.9 998.0
00 12.12 З 6 35 км 4/4 1350 м
[Sc]
+1.3 -0.3 89 -5 -5 999.2 998.3
01 12.12 ЮЗ 5 35 км 5/5 1050 м
[Sc]
+0.5 -0.7 92 -5 -5 999.7 998.8
02 12.12 ЮЗ 6 35 км 3/3 1200 м
[Sc]
-0.1 -1.1 93 -7 -7 1000.3 999.4
03 12.12 ЮЗ 6 35 км 8/8 1350 м
[Sc]
+0.4 -0.8 92 -6 -6 1000.6 999.7
04 12.12 З 6 40 км 3/3 1500 м
[Sc]
+0.1 -1.5 89 -6 -6 1000.0 999.2
05 12.12 З 7 40 км 1/1 1500 м
[Sc]
+1.1 -1.5 83 -6 -6 1000.1 999.3
06 12.12 З 7 35 км 3/0
[Ac trans]
+0.5 -1.9 84 -7 -7 1000.3 999.4 -0.2
07 12.12 З 7 40 км 3/0
[Ac trans]
+0.2 -1.5 88 -7 -7 1000.3 999.4
08 12.12 З 7 40 км 3/1 1500 м
[Sc Ci fib]
+0.2 -1.3 90 -7 -7 1000.3 999.4
09 12.12 ЮЗ 5 50 км 8/1 1500 м
[Sc Ci fib]
-0.1 -2.2 86 -6 -6 1000.3 999.5
10 12.12 ЮЗ 5 50 км 9/1 1260 м
[Sc Cs]
+0.5 -1.9 84 -5 -5 1000.4 999.5
11 12.12 Ю 3 50 км 9/1 1260 м
[Sc Cs]
+0.5 -1.7 85 -4 -3 1000.0 999.1
12 12.12 Ю 2 60 км 9/0
[Cs]
+0.8 -1.1 87 -3 -2 999.5 998.6
13 12.12 Ю 2 >70 км 8/0
[As trans Cs]
+1.4 -0.7 86 -1 -1 998.8 997.9
14 12.12 Ю 3 60 км 8/1 1200 м
[Sc As trans Ci fib]
+0.5 -1.7 85 -4 -4 997.6 996.7
15 12.12 Ю 2 70 км 9/0
[As trans Cs]
+1.5 -1.7 79 -2 -2 996.6 995.7
16 12.12 Ю 4 60 км 9/0
[As trans]
+2.9 -1.4 73 -1 -1 995.8 994.9
17 12.12 В 4 50 км 9/0
[As trans]
+2.2 -1.4 77 -2 -2 994.7 993.8
18 12.12 ЮВ 3 50 км 10/0
[As op]
+2.3 -1.2 78 -1 -1 993.6 992.7 +3.3
19 12.12 ЮВ 3 20 км слабый дождь 10/6 840 м
[Sc As trans]
+2.9 -0.7 77 -1 -1 992.7 991.9
20 12.12 ЮВ 3 20 км слабый дождь 10/6 840 м
[Sc As trans]
+2.9 -0.7 77 -1 -1 992.7 991.9
21 12.12 Ю 3 12 км дождь 10/10 600 м
[Sc]
+3.0 +1.5 90 -1 -1 990.8 989.9
22 12.12 ЮЗ 2 30 км слабый дождь 8/5 1350 м
[Sc As op]
+2.6 +1.3 91 -1 -1 990.1 989.2
23 12.12 ЮЗ 7 50 км в посл. час дождь 3/0
[As op]
+2.9 +1.0 87 -3 -3 989.9 989.0
00 13.12 ЮЗ 4 50 км {дождь} 1/0
[As op]
+1.9 +0.2 88 -3 -3 989.8 989.0 2
01 13.12 ЮЗ 5 50 км 1/1 1500 м
[Sc Ci fib]
+1.5 0.0 90 -4 -4 989.4 988.6
02 13.12 ЮЗ 4 40 км 3/0
[Ci fib]
+2.2 -0.2 84 -3 -3 988.9 988.0
03 13.12 ЮЗ 4 40 км 5/0
[Ac trans]
+2.6 -0.2 82 -2 -2 988.2 987.4
04 13.12 ЮЗ 5 40 км 3/0
[As op]
+2.0 -0.3 85 -4 -4 987.2 986.3
05 13.12 ЮЗ 5 40 км 5/0
[As op]
+2.1 -0.8 81 -3 -3 985.9 985.1
06 13.12 ЮЗ 7 35 км 9/0
[Ac trans]
+3.5 -0.3 76 -2 -2 984.4 983.6 +1.4 2
07 13.12 ЮЗ 5 40 км 9/9 1500 м
[Sc]
+4.2 +0.5 77 -1 -1 983.1 982.3
08 13.12 ЮЗ 6 45 км в посл. час ливневой дождь 9/9 1350 м
[Sc Ac trans]
+4.6 +1.5 80 -1 -1 981.9 981.0
09 13.12 ЮЗ 6 45 км осадки на расстоянии {ливн. осадки} 10/8 660 м
[Cu Sc Ac trans]
+3.9 +1.6 85 -2 -2 981.6 980.7
10 13.12 ЮЗ 6 55 км осадки на расстоянии 9/5 600 м
[Cu Sc Ac trans]
+3.6 +1.2 84 -2 -2 980.7 979.9
11 13.12 ЮЗ 6 55 км 9/3 660 м
[Cu Sc Ac trans]
+3.7 +1.3 84 -2 -2 980.2 979.4
12 13.12 ЮЗ 7 45 км {ливн. осадки} 5/3 750 м
[Cu Sc Ac trans]
+3.1 +0.5 83 -3 -3 979.6 978.7 0.0
13 13.12 З 8 55 км осадки на расстоянии 4/3 750 м
[Cu med, cong Ac trans]
+4.0 +0.3 77 -2 -2 979.5 978.7
14 13.12 З 8 70 км 3/1 600 м
[Cb cap Ci sp]
+2.9 0.0 81 -4 -4 979.1 978.2
15 13.12 З 7 40 км 4/3 660 м
[Cb cap Ac trans]
+2.1 -0.3 84 -4 -4 978.9 978.0
16 13.12 З 6 40 км 4/3 660 м
[Cb cap Ac trans]
+1.4 -1.1 83 -5 -5 979.0 978.2
17 13.12 ЮЗ 5 40 км 3/3 660 м
[Cb cap Ac trans]
+0.7 -0.9 89 -5 -5 979.1 978.2
18 13.12 З 7 40 км ясно +0.7 -0.9 89 -6 -6 978.9 978.0 +5.2 0.0
19 13.12 ЮЗ 5 50 км ясно +0.1 -1.7 88 -6 -6 978.8 977.9
20 13.12 ЮЗ 5 40 км 1/0
[Ci ing]
-0.4 -2.4 86 -6 -6 978.7 977.8
21 13.12 ЮЗ 4 40 км 1/0
[Ci ing]
-1.3 -3.1 88 -7 -7 978.7 977.8
22 13.12 ЮЗ 5 40 км 1/0
[Ci ing]
-0.5 -2.7 85 -6 -6 978.5 977.6
23 13.12 З 6 40 км 3/3 1500 м
[Sc Ci ing]
+0.7 -2.0 82 -6 -6 978.7 977.8
00 14.12 ЮЗ 5 40 км 1/0
[Ci fib]
+0.1 -2.5 83 -6 -6 978.3 977.5
01 14.12 ЮЗ 7 40 км 4/1 540 м
[Cb cap Ac trans Ci ing]
+0.9 -1.6 83 -6 -6 978.4 977.5
02 14.12 З 7 20 км 4/3 540 м
[Cb cap Ac trans Ci ing]
+1.0 -0.5 90 -6 -6 978.4 977.6
03 14.12 З 7 40 км 3/1 600 м
[Cb cap Ac trans Ci ing]
+1.0 -0.5 90 -6 -6 978.3 977.5
04 14.12 ЮЗ 5 50 км 1/0
[Ci ing]
-0.1 -1.4 91 -6 -6 978.2 977.3
05 14.12 ЮЗ 6 45 км 3/1 1500 м
[Sc Ci ing]
-0.1 -1.4 91 -7 -7 977.9 977.0
06 14.12 З 5 40 км 3/1 1500 м
[Sc Ac trans Ci ing]
-0.5 -2.1 89 -7 -7 977.9 977.0 -1.7
07 14.12 ЮЗ 3 40 км 3/1 1350 м
[Sc Ci ing]
-0.6 -2.6 86 -5 -5 977.8 977.0
08 14.12 З 5 40 км 4/0
[Ac trans]
-0.3 -2.0 88 -7 -7 978.0 977.1
09 14.12 ЮЗ 4 40 км 3/1 1500 м
[Sc Ac trans]
-1.7 -3.6 87 -8 -8 978.2 977.4
10 14.12 ЮЗ 5 40 км 3/3 900 м
[Cu Sc Ac trans]
-0.9 -3.1 85 -7 -7 978.5 977.6
11 14.12 ЮЗ 4 45 км 4/1 900 м
[Cu Sc Cs]
+1.2 -1.2 84 -4 -4 978.7 977.9
12 14.12 З 6 45 км 5/1 1500 м
[Sc Cs]
+2.4 -1.4 76 -3 -3 978.5 977.7
13 14.12 ЮЗ 5 50 км 8/1 1500 м
[Sc Cs]
+2.7 -1.7 73 -3 -2 978.2 977.4
14 14.12 ЮЗ 4 50 км 8/4 1050 м
[Sc Ac trans]
+2.2 -1.2 78 -2 -2 978.5 977.7
15 14.12 ЮЗ 3 40 км 6/4 1050 м
[Sc Ac trans]
+1.6 -1.7 79 -3 -3 978.9 978.0
16 14.12 ЮЗ 3 40 км 9/6 900 м
[Sc Ac trans]
+1.6 -1.5 80 -2 -2 979.6 978.7
17 14.12 ЮВ 3 30 км 10/8 840 м
[Sc Ac trans]
+1.7 -1.2 81 -3 -3 980.7 979.8
18 14.12 ЮВ 2 40 км в посл. час дождь 9/4 1200 м
[Sc Ac trans]
+1.3 -0.9 85 -1 -1 982.2 981.3 +3.0 0.0
19 14.12 В 2 40 км 4/1 540 м
[Sc Ac trans]
+0.6 -1.8 84 -2 -2 984.2 983.4
20 14.12 З 1 50 км 3/0
[Ac trans]
-1.6 -2.6 93 -4 -4 986.0 985.2
21 14.12 З 3 50 км 8/1 540 м
[Cu hum Ci fib]
-2.7 -3.4 95 -8 -8 987.5 986.6
22 14.12 ЮЗ 4 20 км слабый ливневой дождь со снегом 9/9 500 м
[Cu Sc Ac trans]
+0.4 -1.0 90 -5 -5 988.4 987.6
23 14.12 СЗ 5 30 км в посл. час ливневой снег 10/10 1140 м
[Sc]
+5.0 +2.2 82 0 0 989.5 988.7
00 15.12 СЗ 9
{13}
15 км слабый ливневой дождь 10/10 330 м
[Cu Sc]
+4.9 +3.5 91 -2 -2 990.8 990.0 0.6
01 15.12 С 7 30 км слабый ливневой дождь 10/10 360 м
[Cu Sc]
+4.9 +3.4 90 -1 -1 992.0 991.2
02 15.12 С 9
{15}
25 км в посл. час ливневой дождь 9/9 360 м
[Sc Ac trans]
+5.8 +3.6 86 0 0 993.3 992.5
03 15.12 СВ 12-17
{19}
20 км в посл. час ливневой дождь 9/9 660 м
[Cb cap Ac trans]
+6.2 +3.9 85 -0 -0 995.1 994.2
04 15.12 С 10-15
{19}
15 км слабый ливневой дождь 10/10 420 м
[Cb cap]
+6.0 +2.4 78 0 0 996.8 996.0
05 15.12 С 11
{19}
25 км в посл. час ливневой дождь 3/1 900 м
[Sc Ac trans]
+5.8 +2.2 78 -0 -0 998.4 997.6
06 15.12 С 12
{16}
30 км {ливн. осадки} 1/0
[Ac trans]
+5.5 +0.5 70 -1 -1 999.8 998.9 -2.8 2
07 15.12 С 8
{14}
30 км 1/0
[Ac trans]
+5.2 +1.2 75 -1 -1 1001.2 1000.3
08 15.12 С 9 35 км 3/1 720 м
[Cu Sc Ac trans]
+5.0 +0.5 73 -1 -1 1002.2 1001.4
09 15.12 С 8
{14}
40 км 4/3 600 м
[Cb cap Ac trans]
+4.9 +1.0 76 -1 -1 1003.3 1002.5
10 15.12 СЗ 8 35 км 6/4 660 м
[Cb cap Ac trans]
+4.6 +1.4 80 -1 -1 1004.4 1003.5
11 15.12 СЗ 6 29 км н/о +3.9 +1.5 84 -2 -2 1005.2 1004.3
12 15.12 З 9 30 км 5/5 450 м
[Sc]
+4.3 +1.8 84 -2 -2 1005.7 1004.8
13 15.12 СЗ 9 35 км осадки на расстоянии 8/6 420 м
[Cb cap Ac trans]
+4.2 +1.5 83 -2 -2 1006.3 1005.5
14 15.12 СЗ 6 35 км в посл. час ливневой дождь 8/6 540 м
[Cb cap Ac trans]
+3.9 +1.3 83 -1 -1 1006.8 1005.9
15 15.12 СЗ 7 30 км слабый ливневой дождь 9/9 480 м
[Cu Sc]
+3.9 +1.6 85 -2 -2 1007.4 1006.6
16 15.12 СЗ 8 35 км в посл. час ливневой дождь 9/9 500 м
[Cu Sc Ac trans]
+4.1 +0.9 80 -2 -2 1008.0 1007.1
17 15.12 СЗ 7
{14}
35 км в посл. час ливневой снег 9/6 450 м
[Sc Ac trans]
+3.4 +1.3 86 -3 -3 1008.2 1007.4
18 15.12 СЗ 8 35 км {ливн. осадки} 5/5 540 м
[Cu Sc]
+2.8 +0.8 87 -4 -4 1009.1 1008.2 +5.8 0.2
19 15.12 СЗ 7
{13}
35 км в посл. час ливневой снег 8/8 540 м
[Cu Sc]
+3.1 +0.8 85 -3 -3 1009.7 1008.9
20 15.12 СЗ 9 30 км слабый ливневой дождь 5/5 540 м
[Cu Sc Ac trans]
+3.1 0.0 80 -4 -4 1010.2 1009.3
21 15.12 СЗ 8 50 км слабый ливневой дождь 6/6 540 м
[Cu Sc]
+3.3 +0.2 80 -3 -3 1010.5 1009.6
22 15.12 З 5 50 км в посл. час ливневой дождь 1/1 540 м
[Cu Sc]
+2.2 -0.2 84 -3 -3 1010.8 1010.0
23 15.12 СЗ 7 30 км 3/3 540 м
[Cu Sc]
+2.9 -0.6 78 -3 -3 1010.9 1010.0
00 16.12 З 7 50 км {ливн. осадки} 3/3 540 м
[Cu Sc Ac trans]
+3.0 -0.8 76 -3 -3 1011.3 1010.4 0.2
01 16.12 З 7 30 км 1/1 540 м
[Cu Sc]
+2.6 -0.2 82 -4 -4 1011.5 1010.6
02 16.12 З 7 50 км 1/1 450 м
[Cu Sc]
+2.3 -0.2 84 -4 -4 1011.8 1011.0
03 16.12 З 5 30 км 9/9 600 м
[Cu Sc]
+2.9 0.0 81 -2 -2 1012.2 1011.4
04 16.12 З 6 50 км 9/9 540 м
[Cu Sc]
+3.2 -0.2 78 -2 -2 1012.3 1011.4
05 16.12 З 6 40 км 6/4 540 м
[Cu Sc Ac trans]
+2.4 -0.2 83 -3 -3 1012.7 1011.8
06 16.12 З 7 60 км в посл. час ливневой дождь 8/8 750 м
[Cu Sc]
+2.8 +0.1 82 -3 -3 1012.7 1011.8 +1.9 0.2
07 16.12 З 6 60 км 9/9 450 м
[Cu Sc]
+2.9 +0.4 84 -3 -3 1013.2 1012.3
08 16.12 З 6 50 км 9/9 500 м
[Sc]
+2.9 +0.3 83 -3 -3 1013.8 1013.0
09 16.12 З 6 45 км 5/5 500 м
[Cu Sc Ci fib]
+2.5 +0.1 84 -3 -3 1014.2 1013.3
10 16.12 З 5 50 км 6/5 570 м
[Sc diur, vesp Ac trans Ci fib]
+2.6 -0.3 81 -3 -3 1014.9 1014.0
11 16.12 З 6 35 км н/о +3.2 -0.1 79 -2 -2 1015.4 1014.5
12 16.12 ЮЗ 6 50 км 4/4 600 м
[Sc diur, vesp Ci fib]
+3.1 +0.7 84 -2 -2 1015.5 1014.6
13 16.12 З 6 50 км 5/4 600 м
[Cu Sc Ci fib]
+3.6 +0.4 80 -2 -2 1016.0 1015.1
14 16.12 З 5 50 км 5/4 540 м
[Sc diur, vesp Ac trans Ci fib]
+3.9 +0.4 78 -1 -1 1016.7 1015.8
15 16.12 ЮЗ 4 50 км 5/4 600 м
[Sc diur, vesp Ac trans Ci fib]
+2.1 +0.1 87 -3 -3 1017.0 1016.1
16 16.12 ЮЗ 4 50 км 3/1 570 м
[Sc diur, vesp Ac trans Ci fib]
0.0 -1.2 92 -6 -6 1017.5 1016.6
17 16.12 З 4 50 км 1/0
[Ac trans Ci fib]
0.0 -1.1 92 -6 -6 1017.9 1017.0
18 16.12 ЮЗ 5 50 км 3/3 1500 м
[Sc]
-0.1 -1.7 89 -6 -6 1018.5 1017.6 +4.1
19 16.12 ЮЗ 4 50 км 1/1 1500 м
[Sc]
-0.4 -1.5 92 -6 -6 1018.5 1017.7
20 16.12 Ю 2 40 км 1/1 1200 м
[Sc]
-0.7 -1.5 94 -4 -4 1018.6 1017.7
21 16.12 ЮЗ 3 40 км 4/4 1200 м
[Sc]
-1.6 -2.6 93 -7 -7 1018.4 1017.5
22 16.12 Ю 3 40 км 1/1 1200 м
[Sc]
-2.3 -3.6 91 -7 -7 1018.1 1017.2
23 16.12 Ю 2 40 км 6/0
[Cs]
-1.4 -2.8 90 -5 -5 1017.7 1016.9
00 17.12 Ю 4 45 км 8/0
[Ac trans Cs]
-0.2 -2.3 86 -6 -6 1017.2 1016.3
01 17.12 Ю 4 45 км 9/0
[Ac As]
+0.2 -1.4 89 -5 -5 1016.6 1015.7
02 17.12 Ю 3 45 км 9/6 1350 м
[Sc Ac trans]
+1.7 -0.8 83 -3 -3 1015.4 1014.5
03 17.12 Ю 4 50 км 9/9 1500 м
[Sc]
+1.9 -0.1 87 -3 -3 1014.5 1013.7
04 17.12 Ю 2 50 км 10/10 1350 м
[Sc]
+2.8 +0.6 85 0 0 1013.4 1012.5
05 17.12 Ю 2 40 км 10/4 1500 м
[Sc Ac trans]
+3.2 +1.3 87 0 0 1011.7 1010.8
06 17.12 ЮЗ 5 40 км слабый дождь 10/5 1500 м
[Sc Ac trans]
+5.1 +2.5 83 0 0 1010.2 1009.3 -2.8 0.0
07 17.12 ЮЗ 4 25 км дождь 10/6 1500 м
[Sc Ac trans]
+5.7 +3.6 86 +2 +2 1008.6 1007.7
08 17.12 ЮЗ 7 12 км дождь 10/10 1440 м
[Sc]
+6.3 +4.5 88 +1 +1 1007.9 1007.0
09 17.12 ЮЗ 7 50 км слабый дождь 10/5 1320 м
[Sc Ac As]
+6.6 +4.0 83 +2 +2 1006.8 1005.9
10 17.12 ЮЗ 5 50 км в посл. час дождь 10/6 1140 м
[Sc Ac trans]
+6.1 +4.4 89 +2 +2 1005.9 1005.1
11 17.12 ЮЗ 7 55 км 5/5 930 м
[Sc Ac trans]
+6.8 +4.6 86 +2 +2 1005.4 1004.5
12 17.12 З 10
{15}
20 км в посл. час дождь 9/9 480 м
[Cu Sc]
+8.0 +6.4 90 +3 +3 1006.3 1005.5 4
13 17.12 З 10
{16}
25 км в посл. час дождь 9/9 800 м
[Sc]
+6.9 +5.0 88 +1 +1 1008.3 1007.5
14 17.12 З 10-15
{15}
21 км осадки на расстоянии 6/6 750 м
[Cu Sc]
+6.6 +2.6 76 +1 +1 1009.6 1008.8
15 17.12 З 9
{14}
25 км {дождь} 4/4 1200 м
[Sc]
+5.9 +2.6 79 0 0 1010.9 1010.1
16 17.12 З 5 30 км 4/1 1500 м
[Sc Ac trans Ci fib]
+5.5 +1.7 76 +1 +1 1012.0 1011.1
17 17.12 З 7
{14}
22 км 6/3 1110 м
[Sc Ac As Ci fib]
+5.9 +2.2 77 +1 +1 1012.9 1012.0
18 17.12 З 7 30 км {дождь} 4/1 1410 м
[Sc Ac trans]
+5.7 +2.3 79 +1 +1 1014.2 1013.3 +8.1 4
19 17.12 З 7 30 км 8/8 930 м
[Sc]
+6.2 +2.2 76 +1 +1 1015.3 1014.4
20 17.12 З 9 25 км 5/5 1050 м
[Cu hum]
+6.4 +1.7 72 +1 +1 1016.5 1015.7
21 17.12 З 8 30 км 3/1 1500 м
[Sc Ci fib]
+5.8 +1.9 76 +1 +1 1017.2 1016.3
22 17.12 З 6 30 км 4/4 1110 м
[Sc]
+5.3 +2.2 80 +1 +1 1017.7 1016.9
23 17.12 З 6 30 км ясно +5.1 +1.5 78 0 0 1018.7 1017.8
00 18.12 З 5 30 км 4/4 1200 м
[Sc Ci fib]
+3.1 +0.7 84 -2 -2 1019.6 1018.7
01 18.12 З 6 30 км 4/4 840 м
[Sc]
+3.1 +0.6 84 -2 -2 1020.4 1019.5
02 18.12 ЮЗ 5 30 км 6/6 870 м
[Sc]
+2.9 +0.7 85 -2 -2 1021.1 1020.2
03 18.12 З 6 30 км 4/4 800 м
[Sc]
+3.5 +0.8 82 -2 -2 1021.7 1020.8
04 18.12 З 5 30 км 1/1 1200 м
[Sc]
+3.2 +0.7 84 -2 -2 1022.4 1021.5
05 18.12 З 5 30 км 1/1 1200 м
[Sc]
+2.5 +0.2 85 -3 -3 1022.8 1021.9
06 18.12 З 5 30 км 1/1 1200 м
[Sc]
+2.0 +0.1 87 -3 -3 1023.1 1022.2 +1.3
07 18.12 ЮЗ 4 30 км 3/0
[Ac trans]
+2.7 +0.2 84 -2 -2 1023.3 1022.4
08 18.12 ЮЗ 4 30 км 9/0
[Ac trans Ci fib]
+2.8 +0.3 84 -2 -2 1023.6 1022.7
09 18.12 Ю 3 30 км 5/0
[Ac trans Ci fib]
+2.2 -0.1 85 -2 -2 1024.0 1023.1

 

Местоположение метеостанции Lossiemouth (Великобритания): широта 57.72 долгота -3.32 высота над уровнем моря 6 м.

В архиве по умолчанию представлена погода в Lossiemouth за последнюю неделю. Архивные данные за месяц целиком и за предыдущие месяцы, начиная с января 2011 года, Вы можете получить, выбрав интересующий диапазон дат из раскрывающегося списка и нажав кнопку "Ввод!".

Внимание! Время в таблицах - всемирное. Для получения местного времени необходимо прибавить поправку, которая в Lossiemouth равна 0 ч.

Смотрите также архив погоды в соседних городах и на ближайших метеорологических станциях:

Погода в Kinloss (Великобритания) (17 км)
Погода в Tain Range (Великобритания) (40 км)
Погода в Aviemore (Великобритания) (65 км)
Погода в Cairngorm (Великобритания) (69 км)
Погода в Aboyne (Великобритания) (77 км)
Погода в Wick (Великобритания) (82 км)
Погода в Aberdeen (Великобритания) (88 км)
Погода в Altnaharra (Великобритания) (90 км)
Погода в Loch Glascarnoch (Великобритания) (93 км)
Погода в Cairnwell (Великобритания) (94 км)

Пояснения к столбцам:

Ветер - указаны скорость ветра в м/с - средняя за 10 мин, порывы в срок и между сроками (в фигурных скобках) и направление, откуда дует ветер: С - северный, СВ - северо-восточный, В - восточный, ЮВ - юго-восточный, Ю - южный, ЮЗ - юго-западный, З - западный, СЗ - северо-западный.
Видимость - горизонтальная дальность видимости в метрах или километрах. При видимости от 1 до 10 км при отсутствии осадков обычно наблюдается дымка, при ухудшении видимости до 1 км и менее - туман. В сухую погоду видимость может ухудшаться дымом, пылью или мглою.
Явления - указаны атмосферные явления, наблюдавшиеся в срок или в последний час перед сроком; фигурными скобками обозначены явления, наблюдавшиеся между сроками (за 1-3 часа до срока); квадратными скобками обозначены град или гололедные отложения с указанием их диаметра в мм.
Облачность - указаны через наклонную черту общая и нижняя облачность в баллах и высота нижней границы облаков в метрах; квадратными скобками обозначены формы облаков: Ci - перистые, Cs - перисто-слоистые, Cc - перисто-кучевые, Ac - высококучевые, As - высокослоистые, Sc - слоисто-кучевые, Ns - слоисто-дождевые, Cu - кучевые, Cb - кучево-дождевые. Подробнее классификацию облаков см. в Атласе облаков (PDF).
T - Температура воздуха - температура, измеренная на высоте 2 м над землей.
Td - Температура точки росы - температура, при понижении до которой содержащийся в воздухе водяной пар достигнет насыщения.
f - Относительная влажность воздуха - влажноcть воздуха, измеренная на высоте 2 м над землей.
Te - Эффективная температура - температура, которую ощущает одетый по сезону человек в тени. Характеристика душности погоды. При расчете учитывается влияние влажности воздуха и скорости ветра на теплоощущения человека.
Tes - Эффективная температура на солнце - температура, которую ощущает человек, с поправкой на солнечный нагрев. Характеристика знойности погоды. Зависит от высоты солнца над горизонтом, облачности и скорости ветра. Ночью, в пасмурную погоду, а также при ветре 12 м/с и более поправка равна нулю.
P - Атмосферное давление - приведенное к уровню моря атмосферное давление.
Po - Атмосферное давление - измеренное на уровне метеостанции атмосферное давление.
Tmin - Минимальная температура - минимум температуры воздуха на высоте 2 м над землей.
Tmax - Максимальная температура - максимум температуры воздуха на высоте 2 м над землей.
R - Количество осадков - Количество выпавших осадков за период времени, мм. При наведении курсора мыши на число - период времени, за который выпало указанное количество осадков.
R24 - Количество осадков - Количество выпавших осадков за 24 часа, мм.
S - Снежный покров - Высота снежного покрова, см. При наведении курсора мыши на число - состояние снежного покрова и степень покрытия местности в баллах.